Volver al catálogo

STARLINK-35797

ActivoComunicacionesVLEO
NORAD 66364·PAYLOAD·🇺🇸 United States

Lanzado Nov 6, 2025 desde Vandenberg Space Force Base

Loading…

Próximos Pases (próximas 24 horas)

TLE

ActualizadoSource: CelesTrak SupGP

Época: Sep 15, 2026, 03:40 UTC

1 66364C 25254S   26258.15326389 -.00023750  00000+0 -70168-3 0  2584
2 66364  53.1587  70.8398 0001187  81.0091 348.6980 15.34403857    16

Sigue STARLINK-35797 en tiempo real con AllMySat

Download on the App Store